Location: Mentone
(34.5413°N, 85.5351°W)
Time: 03:14:22
(UTC-06:00)

ATLAS 5 CENTAUR R/B - Visible Passes

Search period start: 21 December 2014 00:00
Search period end: 31 December 2014 00:00
Orbit: 709 x 953 km, 63.4° (Epoch: 09 December)

Date Brightness Start Highest point End Pass type
(mag) Time Alt. Az. Time Alt. Az. Time Alt. Az.
21 Dec 4.3 03:26:44 23° SE 03:26:44 23° SE 03:28:54 10° SE visible
21 Dec 4.1 05:08:23 16° SW 05:08:23 16° SW 05:10:42 10° SSW visible
21 Dec 1.9 18:03:09 10° SSW 18:08:10 89° ESE 18:11:14 26° NNE visible
21 Dec 4.6 19:51:10 10° WNW 19:52:51 13° NW 19:52:51 13° NW visible
22 Dec 4.9 03:09:41 13° SE 03:09:41 13° SE 03:10:15 10° SE visible
22 Dec 4.3 04:51:19 13° SW 04:51:19 13° SW 04:52:21 10° SSW visible
22 Dec 1.9 17:44:32 10° SSW 17:49:34 84° ESE 17:53:49 16° NNE visible
22 Dec 4.4 19:32:17 10° WNW 19:35:02 14° NW 19:35:26 14° NW visible
23 Dec 1.9 17:25:56 10° SSW 17:30:57 79° ESE 17:36:16 10° NNE visible
23 Dec 4.4 19:13:25 10° WNW 19:16:21 15° NW 19:17:56 13° NNW visible
24 Dec 2.0 17:07:21 10° SSW 17:12:21 73° ESE 17:17:38 10° NE visible
24 Dec 4.4 18:54:35 10° W 18:57:41 16° NW 19:00:22 12° N visible
25 Dec 4.3 18:35:45 10° W 18:39:01 17° NW 18:42:25 10° N visible
26 Dec 4.3 18:16:56 10° W 18:20:21 18° NW 18:23:54 10° N visible
27 Dec 4.2 17:58:08 10° W 18:01:41 18° NW 18:05:23 10° N visible
28 Dec 4.2 17:39:20 10° W 17:43:01 19° NW 17:46:52 10° N visible
29 Dec 4.1 17:20:33 10° W 17:24:22 21° NW 17:28:20 10° N visible
30 Dec 4.0 17:01:47 10° W 17:05:42 22° NW 17:09:48 10° N visible
